This is the latest recevied weather packets stored in our database for station/object KY0TEQ-13. If no packets are shown the sender has not sent any weather packets the latest 10 day(s).
| Time | Temp. | Humidity | Pressure | Rain* | Wind** | Luminosity | Snow |
|---|---|---|---|---|---|---|---|
| 1788407255 | 16.11° C | 54% | 1308.3 hPa | 0 mm | - | 0 W/m² | - |
| 1788406950 | 16.67° C | 53% | 1308.2 hPa | 0 mm | - | 0 W/m² | - |
| 1788406645 | 16.11° C | 53% | 1308.2 hPa | 0 mm | - | 0 W/m² | - |
| 1788406339 | 16.11° C | 53% | 1308.2 hPa | 0 mm | - | 0 W/m² | - |
| 1788406029 | 16.67° C | 51% | 1308.2 hPa | 0 mm | - | 0 W/m² | - |
| 1788405724 | 16.67° C | 50% | 1308.3 hPa | 0 mm | - | 0 W/m² | - |
| 1788405420 | 16.11° C | 51% | 1308 hPa | 0 mm | - | 0 W/m² | - |
| 1788405114 | 16.11° C | 52% | 1308.2 hPa | 0 mm | - | 0 W/m² | - |
| 1788404810 | 16.11° C | 53% | 1308 hPa | 0 mm | - | 0 W/m² | - |
| 1788404505 | 16.11° C | 52% | 1308.2 hPa | 0 mm | - | 0 W/m² | - |
| 1788404200 | 15.56° C | 54% | 1307.9 hPa | 0 mm | - | 0 W/m² | - |
| 1788403896 | 15.56° C | 54% | 1307.9 hPa | 0 mm | - | 0 W/m² | - |
| 1788403591 | 16.67° C | 52% | 1307.8 hPa | 0 mm | - | 0 W/m² | - |
| 1788403290 | 15.56° C | 54% | 1307.8 hPa | 0 mm | - | 0 W/m² | - |
| 1788402986 | 16.11° C | 53% | 1307.9 hPa | 0 mm | - | 0 W/m² | - |
| 1788402685 | 16.67° C | 52% | 1307.4 hPa | 0 mm | - | 0 W/m² | - |
| 1788402380 | 17.22° C | 51% | 1307.8 hPa | 0 mm | - | 0 W/m² | - |
| 1788402079 | 17.22° C | 51% | 1307.7 hPa | 0 mm | - | 0 W/m² | - |
| 1788401774 | 17.22° C | 50% | 1307.6 hPa | 0 mm | - | 0 W/m² | - |
| 1788401473 | 17.78° C | 50% | 1307.6 hPa | 0 mm | - | 0 W/m² | - |
| 1788401169 | 17.78° C | 49% | 1307.6 hPa | 0 mm | - | 0 W/m² | - |
| 1788400864 | 18.33° C | 47% | 1307.3 hPa | 0 mm | - | 0 W/m² | - |
| 1788400560 | 18.89° C | 46% | 1307.4 hPa | 0 mm | - | 0 W/m² | - |
| 1788400255 | 18.89° C | 45% | 1307.3 hPa | 0 mm | - | 1 W/m² | - |
| 1788399954 | 19.44° C | 45% | 1307.7 hPa | 0 mm | - | 1 W/m² | - |
* Rain latest hour (hover to see other rain measurements)
** Current wind speed in m/s (hover to see current wind gust speed)